| time (UTC) | temp F | wind direction | speed MPH | gust MPH | rain 1hr in | rain 24hr in | rain mn in | humidity % | barometer mb |
| 20260509184047 | 83 | 216 | 15.0 | 25.0 | 0.00 | 0.00 | 0.00 | 26 | 1010.3 |
| 20260509183548 | 83 | 210 | 11.0 | 22.0 | 0.00 | 0.00 | 0.00 | 26 | 1010.3 |
| 20260509183054 | 83 | 187 | 15.0 | 22.0 | 0.00 | 0.00 | 0.00 | 25 | 1010.4 |
| 20260509182546 | 83 | 207 | 13.0 | 20.0 | 0.00 | 0.00 | 0.00 | 25 | 1010.4 |
| 20260509182048 | 82 | 233 | 11.0 | 21.0 | 0.00 | 0.00 | 0.00 | 27 | 1010.4 |
| 20260509181555 | 82 | 210 | 11.0 | 21.0 | 0.00 | 0.00 | 0.00 | 29 | 1010.4 |
| 20260509181048 | 83 | 206 | 12.0 | 21.0 | 0.00 | 0.00 | 0.00 | 28 | 1010.7 |
| 20260509180548 | 83 | 195 | 12.0 | 19.0 | 0.00 | 0.00 | 0.00 | 28 | 1010.7 |
| 20260509180100 | 82 | 200 | 11.0 | 19.0 | 0.00 | 0.00 | 0.00 | 30 | 1010.7 |
| 20260509175548 | 81 | 210 | 7.0 | 19.0 | 0.00 | 0.00 | 0.00 | 30 | 1010.8 |
| 20260509175052 | 81 | 206 | 11.0 | 20.0 | 0.00 | 0.00 | 0.00 | 30 | 1010.9 |
| 20260509174553 | 82 | 191 | 10.0 | 20.0 | 0.00 | 0.00 | 0.00 | 30 | 1011.2 |
| 20260509174049 | 81 | 191 | 12.0 | 20.0 | 0.00 | 0.00 | 0.00 | 29 | 1011.3 |
| 20260509173544 | 81 | 231 | 11.0 | 20.0 | 0.00 | 0.00 | 0.00 | 31 | 1011.4 |
| 20260509173051 | 81 | 207 | 12.0 | 20.0 | 0.00 | 0.00 | 0.00 | 30 | 1011.3 |
| 20260509172544 | 79 | 219 | 10.0 | 18.0 | 0.00 | 0.00 | 0.00 | 32 | 1011.3 |
| 20260509172045 | 79 | 236 | 9.0 | 18.0 | 0.00 | 0.00 | 0.00 | 31 | 1011.4 |
| 20260509171554 | 79 | 225 | 12.0 | 18.0 | 0.00 | 0.00 | 0.00 | 31 | 1011.6 |
| 20260509171047 | 79 | 203 | 12.0 | 22.0 | 0.00 | 0.00 | 0.00 | 31 | 1011.7 |
| 20260509170548 | 79 | 198 | 14.0 | 22.0 | 0.00 | 0.00 | 0.00 | 31 | 1011.7 |
| 20260509170059 | 79 | 209 | 13.0 | 22.0 | 0.00 | 0.00 | 0.00 | 32 | 1011.9 |
| 20260509165545 | 80 | 214 | 11.0 | 20.0 | 0.00 | 0.00 | 0.00 | 31 | 1011.8 |
| 20260509165053 | 79 | 200 | 10.0 | 18.0 | 0.00 | 0.00 | 0.00 | 33 | 1011.8 |
| 20260509164557 | 78 | 196 | 10.0 | 17.0 | 0.00 | 0.00 | 0.00 | 33 | 1011.9 |
| 20260509164048 | 78 | 224 | 11.0 | 18.0 | 0.00 | 0.00 | 0.00 | 34 | 1011.8 |
| 20260509163544 | 78 | 238 | 11.0 | 18.0 | 0.00 | 0.00 | 0.00 | 34 | 1011.9 |
| 20260509163053 | 78 | 225 | 12.0 | 18.0 | 0.00 | 0.00 | 0.00 | 33 | 1012.1 |
| 20260509162548 | 78 | 231 | 10.0 | 18.0 | 0.00 | 0.00 | 0.00 | 34 | 1012.1 |
| 20260509162047 | 78 | 223 | 12.0 | 18.0 | 0.00 | 0.00 | 0.00 | 34 | 1012.0 |
| 20260509161559 | 77 | 205 | 11.0 | 17.0 | 0.00 | 0.00 | 0.00 | 35 | 1012.1 |
| 20260509161048 | 77 | 173 | 11.0 | 17.0 | 0.00 | 0.00 | 0.00 | 34 | 1012.2 |
| 20260509160545 | 77 | 227 | 10.0 | 19.0 | 0.00 | 0.00 | 0.00 | 35 | 1012.1 |
| 20260509160053 | 76 | 213 | 12.0 | 22.0 | 0.00 | 0.00 | 0.00 | 35 | 1012.3 |
| 20260509155545 | 76 | 242 | 14.0 | 22.0 | 0.00 | 0.00 | 0.00 | 33 | 1012.3 |
| 20260509155048 | 76 | 214 | 12.0 | 18.0 | 0.00 | 0.00 | 0.00 | 34 | 1012.3 |
| 20260509154559 | 75 | 224 | 11.0 | 18.0 | 0.00 | 0.00 | 0.00 | 35 | 1012.3 |
| 20260509154048 | 75 | 175 | 11.0 | 19.0 | 0.00 | 0.00 | 0.00 | 35 | 1012.3 |
| 20260509153550 | 74 | 201 | 11.0 | 19.0 | 0.00 | 0.00 | 0.00 | 36 | 1012.4 |
| 20260509153055 | 74 | 226 | 12.0 | 20.0 | 0.00 | 0.00 | 0.00 | 35 | 1012.5 |
| 20260509152548 | 74 | 226 | 14.0 | 20.0 | 0.00 | 0.00 | 0.00 | 37 | 1012.7 |
| 20260509152050 | 73 | 220 | 12.0 | 22.0 | 0.00 | 0.00 | 0.00 | 38 | 1012.6 |
| 20260509151552 | 73 | 214 | 13.0 | 22.0 | 0.00 | 0.00 | 0.00 | 38 | 1012.8 |
| 20260509151048 | 72 | 205 | 13.0 | 22.0 | 0.00 | 0.00 | 0.00 | 39 | 1012.9 |
| 20260509150548 | 72 | 212 | 12.0 | 19.0 | 0.00 | 0.00 | 0.00 | 39 | 1013.0 |
| 20260509150053 | 71 | 243 | 12.0 | 18.0 | 0.00 | 0.00 | 0.00 | 40 | 1013.0 |
| 20260509145550 | 71 | 238 | 14.0 | 18.0 | 0.00 | 0.00 | 0.00 | 41 | 1013.1 |
| 20260509145049 | 70 | 247 | 11.0 | 18.0 | 0.00 | 0.00 | 0.00 | 42 | 1013.1 |
| 20260509144550 | 70 | 210 | 12.0 | 18.0 | 0.00 | 0.00 | 0.00 | 42 | 1013.1 |
| 20260509144048 | 69 | 186 | 14.0 | 18.0 | 0.00 | 0.00 | 0.00 | 43 | 1013.1 |
| 20260509143549 | 68 | 232 | 14.0 | 18.0 | 0.00 | 0.00 | 0.00 | 44 | 1013.2 |
| 20260509143052 | 68 | 232 | 13.0 | 18.0 | 0.00 | 0.00 | 0.00 | 45 | 1013.2 |
| 20260509142549 | 67 | 236 | 12.0 | 20.0 | 0.00 | 0.00 | 0.00 | 47 | 1013.2 |
| 20260509142053 | 66 | 232 | 11.0 | 20.0 | 0.00 | 0.00 | 0.00 | 47 | 1013.2 |
| 20260509141550 | 66 | 236 | 13.0 | 20.0 | 0.00 | 0.00 | 0.00 | 46 | 1013.2 |
| 20260509141053 | 66 | 232 | 12.0 | 21.0 | 0.00 | 0.00 | 0.00 | 47 | 1013.1 |
| 20260509140547 | 65 | 221 | 13.0 | 21.0 | 0.00 | 0.00 | 0.00 | 49 | 1013.2 |
| 20260509140100 | 64 | 221 | 14.0 | 21.0 | 0.00 | 0.00 | 0.00 | 49 | 1013.0 |
| 20260509135549 | 63 | 231 | 12.0 | 17.0 | 0.00 | 0.00 | 0.00 | 53 | 1013.0 |
| 20260509135047 | 62 | 214 | 11.0 | 17.0 | 0.00 | 0.00 | 0.00 | 54 | 1013.0 |
| 20260509134625 | 60 | 222 | 11.0 | 15.0 | 0.00 | 0.00 | 0.00 | 56 | 1013.1 |
| 20260509134052 | 59 | 231 | 9.0 | 13.0 | 0.00 | 0.00 | 0.00 | 57 | 1013.1 |
| 20260509133549 | 58 | 231 | 3.0 | 10.0 | 0.00 | 0.00 | 0.00 | 58 | 1013.1 |
| 20260509133052 | 58 | 237 | 1.0 | 10.0 | 0.00 | 0.00 | 0.00 | 58 | 1013.2 |
| 20260509132548 | 58 | 0 | 6.0 | 10.0 | 0.00 | 0.00 | 0.00 | 58 | 1013.2 |
| 20260509132049 | 58 | 233 | 6.0 | 10.0 | 0.00 | 0.00 | 0.00 | 59 | 1013.3 |
| 20260509131553 | 57 | 224 | 6.0 | 10.0 | 0.00 | 0.00 | 0.00 | 59 | 1013.4 |
| 20260509131050 | 57 | 241 | 5.0 | 10.0 | 0.00 | 0.00 | 0.00 | 59 | 1013.4 |
| 20260509130549 | 57 | 248 | 6.0 | 10.0 | 0.00 | 0.00 | 0.00 | 59 | 1013.4 |
| 20260509130051 | 57 | 238 | 6.0 | 10.0 | 0.00 | 0.00 | 0.00 | 58 | 1013.3 |
| 20260509125547 | 57 | 249 | 5.0 | 8.0 | 0.00 | 0.00 | 0.00 | 58 | 1013.3 |
| 20260509125049 | 57 | 255 | 5.0 | 7.0 | 0.00 | 0.00 | 0.00 | 58 | 1013.4 |
| 20260509124550 | 57 | 266 | 5.0 | 7.0 | 0.00 | 0.00 | 0.00 | 58 | 1013.3 |
| 20260509124048 | 57 | 240 | 4.0 | 7.0 | 0.00 | 0.00 | 0.00 | 59 | 1013.2 |
| 20260509123549 | 57 | 237 | 5.0 | 8.0 | 0.00 | 0.00 | 0.00 | 59 | 1013.1 |
| 20260509123052 | 57 | 247 | 5.0 | 8.0 | 0.00 | 0.00 | 0.00 | 59 | 1013.1 |
| 20260509122549 | 57 | 232 | 6.0 | 10.0 | 0.00 | 0.00 | 0.00 | 59 | 1013.1 |
| 20260509122048 | 57 | 252 | 6.0 | 10.0 | 0.00 | 0.00 | 0.00 | 60 | 1013.2 |
| 20260509121554 | 56 | 222 | 5.0 | 10.0 | 0.00 | 0.00 | 0.00 | 60 | 1013.0 |
| 20260509121049 | 56 | 226 | 6.0 | 11.0 | 0.00 | 0.00 | 0.00 | 60 | 1012.9 |
| 20260509120549 | 55 | 229 | 7.0 | 11.0 | 0.00 | 0.00 | 0.00 | 61 | 1012.7 |
| 20260509120053 | 55 | 208 | 7.0 | 11.0 | 0.00 | 0.00 | 0.00 | 62 | 1012.7 |
| 20260509115548 | 54 | 197 | 7.0 | 11.0 | 0.00 | 0.00 | 0.00 | 63 | 1012.4 |
| 20260509115045 | 53 | 176 | 8.0 | 11.0 | 0.00 | 0.00 | 0.00 | 62 | 1012.0 |
| 20260509114553 | 53 | 186 | 6.0 | 9.0 | 0.00 | 0.00 | 0.00 | 62 | 1012.1 |
| 20260509114048 | 54 | 193 | 4.0 | 8.0 | 0.00 | 0.00 | 0.00 | 61 | 1012.2 |
| 20260509113547 | 54 | 183 | 5.0 | 8.0 | 0.00 | 0.00 | 0.00 | 61 | 1012.3 |
| 20260509113058 | 54 | 205 | 6.0 | 10.0 | 0.00 | 0.00 | 0.00 | 60 | 1012.3 |
| 20260509112548 | 54 | 184 | 5.0 | 10.0 | 0.00 | 0.00 | 0.00 | 60 | 1012.2 |
| 20260509112048 | 54 | 200 | 4.0 | 10.0 | 0.00 | 0.00 | 0.00 | 60 | 1012.3 |
| 20260509111557 | 54 | 200 | 6.0 | 8.0 | 0.00 | 0.00 | 0.00 | 60 | 1012.3 |
| 20260509111048 | 54 | 165 | 5.0 | 7.0 | 0.00 | 0.00 | 0.00 | 60 | 1012.2 |
| 20260509110548 | 55 | 165 | 5.0 | 8.0 | 0.00 | 0.00 | 0.00 | 59 | 1012.3 |
| 20260509110055 | 55 | 167 | 5.0 | 8.0 | 0.00 | 0.00 | 0.00 | 58 | 1012.2 |
| 20260509105544 | 56 | 193 | 5.0 | 8.0 | 0.00 | 0.00 | 0.00 | 57 | 1012.3 |
| 20260509105048 | 56 | 172 | 5.0 | 9.0 | 0.00 | 0.00 | 0.00 | 57 | 1012.3 |
| 20260509104555 | 57 | 186 | 6.0 | 9.0 | 0.00 | 0.00 | 0.00 | 56 | 1012.1 |
| 20260509104049 | 57 | 164 | 6.0 | 10.0 | 0.00 | 0.00 | 0.00 | 56 | 1012.2 |
| 20260509103547 | 57 | 203 | 7.0 | 10.0 | 0.00 | 0.00 | 0.00 | 56 | 1012.2 |
| 20260509103058 | 57 | 187 | 6.0 | 11.0 | 0.00 | 0.00 | 0.00 | 56 | 1012.0 |
| 20260509102548 | 57 | 158 | 7.0 | 11.0 | 0.00 | 0.00 | 0.00 | 56 | 1012.0 |
| 20260509102046 | 57 | 203 | 7.0 | 11.0 | 0.00 | 0.00 | 0.00 | 55 | 1012.3 |
| 20260509101554 | 56 | 198 | 6.0 | 10.0 | 0.00 | 0.00 | 0.00 | 56 | 1012.5 |
| 20260509101045 | 56 | 192 | 7.0 | 10.0 | 0.00 | 0.00 | 0.00 | 56 | 1012.5 |
| 20260509100548 | 56 | 183 | 7.0 | 10.0 | 0.00 | 0.00 | 0.00 | 57 | 1012.5 |
| 20260509100057 | 55 | 152 | 7.0 | 10.0 | 0.00 | 0.00 | 0.00 | 58 | 1012.4 |
| 20260509095545 | 55 | 179 | 7.0 | 10.0 | 0.00 | 0.00 | 0.00 | 58 | 1012.4 |
| 20260509095049 | 54 | 173 | 7.0 | 10.0 | 0.00 | 0.00 | 0.00 | 58 | 1012.4 |
| 20260509094558 | 54 | 162 | 7.0 | 10.0 | 0.00 | 0.00 | 0.00 | 59 | 1012.5 |
| 20260509094048 | 53 | 184 | 6.0 | 9.0 | 0.00 | 0.00 | 0.00 | 59 | 1012.4 |
| 20260509093548 | 53 | 155 | 6.0 | 8.0 | 0.00 | 0.00 | 0.00 | 59 | 1012.3 |
| 20260509093058 | 53 | 195 | 6.0 | 8.0 | 0.00 | 0.00 | 0.00 | 59 | 1012.3 |
| 20260509092547 | 53 | 165 | 6.0 | 8.0 | 0.00 | 0.00 | 0.00 | 59 | 1012.3 |
| 20260509092048 | 53 | 143 | 6.0 | 8.0 | 0.00 | 0.00 | 0.00 | 60 | 1012.4 |
| 20260509091556 | 52 | 173 | 6.0 | 8.0 | 0.00 | 0.00 | 0.00 | 60 | 1012.4 |
| 20260509091048 | 52 | 176 | 6.0 | 8.0 | 0.00 | 0.00 | 0.00 | 60 | 1012.3 |
| 20260509090545 | 52 | 154 | 5.0 | 7.0 | 0.00 | 0.00 | 0.00 | 59 | 1012.2 |
| 20260509090053 | 53 | 152 | 5.0 | 8.0 | 0.00 | 0.00 | 0.00 | 59 | 1012.2 |
| 20260509085545 | 53 | 148 | 6.0 | 8.0 | 0.00 | 0.00 | 0.00 | 59 | 1012.2 |
| 20260509085049 | 53 | 153 | 5.0 | 8.0 | 0.00 | 0.00 | 0.00 | 58 | 1012.3 |
| 20260509084554 | 53 | 154 | 6.0 | 8.0 | 0.00 | 0.00 | 0.00 | 58 | 1012.4 |
| 20260509084049 | 53 | 172 | 6.0 | 9.0 | 0.00 | 0.00 | 0.00 | 58 | 1012.5 |
| 20260509083548 | 53 | 198 | 6.0 | 9.0 | 0.00 | 0.00 | 0.00 | 58 | 1012.6 |
| 20260509083055 | 53 | 186 | 6.0 | 8.0 | 0.00 | 0.00 | 0.00 | 59 | 1012.6 |
| 20260509082547 | 52 | 186 | 5.0 | 7.0 | 0.00 | 0.00 | 0.00 | 59 | 1012.6 |
| 20260509082047 | 52 | 206 | 5.0 | 7.0 | 0.00 | 0.00 | 0.00 | 59 | 1012.5 |
| 20260509081552 | 52 | 163 | 5.0 | 7.0 | 0.00 | 0.00 | 0.00 | 59 | 1012.6 |
| 20260509081052 | 52 | 162 | 5.0 | 7.0 | 0.00 | 0.00 | 0.00 | 59 | 1012.6 |
| 20260509080550 | 52 | 148 | 5.0 | 7.0 | 0.00 | 0.00 | 0.00 | 59 | 1012.6 |
| 20260509080053 | 52 | 165 | 5.0 | 7.0 | 0.00 | 0.00 | 0.00 | 58 | 1012.6 |
| 20260509075549 | 52 | 193 | 5.0 | 7.0 | 0.00 | 0.00 | 0.00 | 58 | 1012.7 |
| 20260509075050 | 52 | 177 | 5.0 | 9.0 | 0.00 | 0.00 | 0.00 | 58 | 1012.9 |
| 20260509074558 | 53 | 189 | 5.0 | 9.0 | 0.00 | 0.00 | 0.00 | 58 | 1012.7 |
| 20260509074047 | 53 | 160 | 6.0 | 9.0 | 0.00 | 0.00 | 0.00 | 58 | 1012.7 |
| 20260509073549 | 52 | 201 | 5.0 | 9.0 | 0.00 | 0.00 | 0.00 | 59 | 1012.7 |
| 20260509073101 | 51 | 192 | 7.0 | 9.0 | 0.00 | 0.00 | 0.00 | 61 | 1012.7 |
| 20260509072551 | 50 | 198 | 6.0 | 8.0 | 0.00 | 0.00 | 0.00 | 63 | 1012.9 |
| 20260509072048 | 49 | 162 | 5.0 | 6.0 | 0.00 | 0.00 | 0.00 | 64 | 1012.9 |
| 20260509071605 | 49 | 0 | 0.0 | 0.0 | 0.00 | 0.00 | 0.00 | 64 | 1012.9 |
| 20260509071047 | 49 | 0 | 0.0 | 0.0 | 0.00 | 0.00 | 0.00 | 64 | 1012.9 |
| 20260509070548 | 49 | 0 | 0.0 | 0.0 | 0.00 | 0.00 | 0.00 | 64 | 1012.9 |
| 20260509070051 | 50 | 0 | 0.0 | 0.0 | 0.00 | 0.00 | 0.00 | 64 | 1013.0 |
| 20260509065552 | 50 | 0 | 0.0 | 0.0 | 0.00 | 0.00 | 0.00 | 64 | 1013.1 |
| 20260509065048 | 50 | 0 | 0.0 | 0.0 | 0.00 | 0.00 | 0.00 | 63 | 1013.1 |
| 20260509064601 | 50 | 0 | 0.0 | 0.0 | 0.00 | 0.00 | 0.00 | 64 | 1013.2 |
| 20260509064050 | 50 | 0 | 0.0 | 0.0 | 0.00 | 0.00 | 0.00 | 64 | 1013.2 |
| 20260509063549 | 49 | 0 | 0.0 | 0.0 | 0.00 | 0.00 | 0.00 | 65 | 1013.2 |
| 20260509063050 | 49 | 0 | 0.0 | 0.0 | 0.00 | 0.00 | 0.00 | 65 | 1013.4 |
| 20260509062548 | 49 | 0 | 0.0 | 0.0 | 0.00 | 0.00 | 0.00 | 65 | 1013.4 |
| 20260509062048 | 48 | 0 | 0.0 | 0.0 | 0.00 | 0.00 | 0.00 | 65 | 1013.4 |
| 20260509061601 | 49 | 0 | 0.0 | 0.0 | 0.00 | 0.00 | 0.00 | 64 | 1013.2 |
| 20260509061049 | 49 | 0 | 0.0 | 4.0 | 0.00 | 0.00 | 0.00 | 64 | 1013.2 |
| 20260509060549 | 49 | 0 | 0.0 | 5.0 | 0.00 | 0.00 | 0.00 | 65 | 1013.1 |
| 20260509060050 | 49 | 131 | 3.0 | 6.0 | 0.00 | 0.00 | 0.00 | 64 | 1013.2 |
| 20260509055549 | 49 | 141 | 4.0 | 6.0 | 0.00 | 0.00 | 0.00 | 64 | 1013.4 |
| 20260509055048 | 49 | 158 | 4.0 | 5.0 | 0.00 | 0.00 | 0.00 | 64 | 1013.3 |
| 20260509054555 | 49 | 141 | 4.0 | 5.0 | 0.00 | 0.00 | 0.00 | 64 | 1013.3 |
| 20260509054048 | 49 | 143 | 4.0 | 5.0 | 0.00 | 0.00 | 0.00 | 65 | 1013.4 |
| 20260509053548 | 48 | 157 | 4.0 | 6.0 | 0.00 | 0.00 | 0.00 | 67 | 1013.3 |
| 20260509053052 | 48 | 146 | 4.0 | 6.0 | 0.00 | 0.00 | 0.00 | 67 | 1013.4 |
| 20260509052550 | 47 | 148 | 5.0 | 6.0 | 0.00 | 0.00 | 0.00 | 68 | 1013.3 |
| 20260509052045 | 47 | 149 | 0.0 | 0.0 | 0.00 | 0.00 | 0.00 | 67 | 1013.3 |
| 20260509051551 | 47 | 0 | 0.0 | 0.0 | 0.00 | 0.00 | 0.00 | 67 | 1013.1 |
| 20260509051045 | 47 | 0 | 0.0 | 0.0 | 0.00 | 0.00 | 0.00 | 68 | 1013.1 |
| 20260509050548 | 47 | 0 | 0.0 | 0.0 | 0.00 | 0.00 | 0.00 | 68 | 1013.2 |
| 20260509050056 | 47 | 0 | 0.0 | 0.0 | 0.00 | 0.00 | 0.00 | 68 | 1013.2 |
| 20260509045548 | 46 | 0 | 0.0 | 2.0 | 0.00 | 0.00 | 0.00 | 69 | 1013.1 |
| 20260509045049 | 46 | 0 | 0.0 | 2.0 | 0.00 | 0.00 | 0.00 | 69 | 1013.0 |
| 20260509044550 | 47 | 0 | 0.0 | 0.0 | 0.00 | 0.00 | 0.00 | 69 | 1012.9 |
| 20260509044048 | 47 | 0 | 0.0 | 0.0 | 0.00 | 0.00 | 0.00 | 68 | 1013.0 |
| 20260509043547 | 47 | 0 | 0.0 | 0.0 | 0.00 | 0.00 | 0.00 | 68 | 1013.0 |
| 20260509043104 | 46 | 0 | 0.0 | 0.0 | 0.00 | 0.00 | 0.00 | 69 | 1012.9 |
| 20260509042548 | 46 | 0 | 0.0 | 0.0 | 0.00 | 0.00 | 0.00 | 68 | 1012.9 |
| 20260509042048 | 47 | 0 | 0.0 | 0.0 | 0.00 | 0.00 | 0.00 | 67 | 1013.0 |
| 20260509041552 | 47 | 0 | 0.0 | 0.0 | 0.00 | 0.00 | 0.00 | 66 | 1012.8 |
| 20260509041046 | 47 | 0 | 0.0 | 0.0 | 0.00 | 0.00 | 0.00 | 67 | 1012.7 |
| 20260509040545 | 47 | 0 | 0.0 | 0.0 | 0.00 | 0.00 | 0.00 | 66 | 1012.7 |
| 20260509040054 | 47 | 0 | 0.0 | 0.0 | 0.00 | 0.00 | 0.00 | 64 | 1012.7 |
| 20260509035550 | 48 | 0 | 0.0 | 0.0 | 0.00 | 0.00 | 0.00 | 63 | 1012.9 |
| 20260509035046 | 48 | 0 | 0.0 | 0.0 | 0.00 | 0.00 | 0.00 | 61 | 1012.8 |
| 20260509034554 | 49 | 0 | 0.0 | 0.0 | 0.00 | 0.00 | 0.00 | 59 | 1012.9 |
| 20260509034045 | 50 | 0 | 0.0 | 0.0 | 0.00 | 0.00 | 0.00 | 59 | 1012.7 |
| 20260509033548 | 50 | 0 | 0.0 | 0.0 | 0.00 | 0.00 | 0.00 | 59 | 1012.7 |
| 20260509033056 | 51 | 0 | 0.0 | 0.0 | 0.00 | 0.00 | 0.00 | 58 | 1012.7 |
| 20260509032548 | 50 | 0 | 0.0 | 0.0 | 0.00 | 0.00 | 0.00 | 60 | 1012.5 |
| 20260509032048 | 50 | 0 | 0.0 | 0.0 | 0.00 | 0.00 | 0.00 | 61 | 1012.5 |
| 20260509031554 | 49 | 0 | 0.0 | 0.0 | 0.00 | 0.00 | 0.00 | 59 | 1012.5 |
| 20260509031048 | 50 | 0 | 0.0 | 0.0 | 0.00 | 0.00 | 0.00 | 56 | 1012.4 |
| 20260509030549 | 52 | 0 | 0.0 | 0.0 | 0.00 | 0.00 | 0.00 | 54 | 1012.3 |
| 20260509030056 | 53 | 0 | 0.0 | 0.0 | 0.00 | 0.00 | 0.00 | 52 | 1012.3 |
| 20260509025551 | 54 | 0 | 0.0 | 0.0 | 0.00 | 0.00 | 0.00 | 50 | 1012.2 |
| 20260509025051 | 56 | 0 | 0.0 | 0.0 | 0.00 | 0.00 | 0.00 | 49 | 1012.4 |
| 20260509024552 | 57 | 0 | 0.0 | 0.0 | 0.00 | 0.00 | 0.00 | 47 | 1012.2 |
| 20260509024047 | 58 | 0 | 0.0 | 0.0 | 0.00 | 0.00 | 0.00 | 47 | 1011.9 |
| 20260509023612 | 59 | 0 | 0.0 | 0.0 | 0.00 | 0.00 | 0.00 | 46 | 1012.0 |
| 20260509023052 | 59 | 0 | 0.0 | 0.0 | 0.00 | 0.00 | 0.00 | 47 | 1012.0 |
| 20260509022548 | 59 | 0 | 0.0 | 0.0 | 0.00 | 0.00 | 0.00 | 47 | 1012.0 |
| 20260509022045 | 59 | 0 | 0.0 | 0.0 | 0.00 | 0.00 | 0.00 | 46 | 1012.2 |
| 20260509021554 | 60 | 0 | 0.0 | 0.0 | 0.00 | 0.00 | 0.00 | 45 | 1012.2 |
| 20260509021048 | 60 | 0 | 0.0 | 0.0 | 0.00 | 0.00 | 0.00 | 45 | 1012.3 |
| 20260509020546 | 60 | 0 | 0.0 | 0.0 | 0.00 | 0.00 | 0.00 | 44 | 1012.2 |
| 20260509020050 | 61 | 0 | 0.0 | 0.0 | 0.00 | 0.00 | 0.00 | 43 | 1012.2 |
| 20260509015548 | 62 | 0 | 0.0 | 0.0 | 0.00 | 0.00 | 0.00 | 40 | 1012.2 |
| 20260509015044 | 63 | 0 | 0.0 | 0.0 | 0.00 | 0.00 | 0.00 | 39 | 1012.2 |
| 20260509014553 | 65 | 0 | 0.0 | 0.0 | 0.00 | 0.00 | 0.00 | 38 | 1012.1 |
| 20260509014048 | 66 | 0 | 0.0 | 0.0 | 0.00 | 0.00 | 0.00 | 38 | 1012.0 |
| 20260509013548 | 67 | 0 | 0.0 | 0.0 | 0.00 | 0.00 | 0.00 | 37 | 1012.0 |
| 20260509013057 | 68 | 0 | 0.0 | 0.0 | 0.00 | 0.00 | 0.00 | 37 | 1011.8 |
| 20260509012545 | 69 | 0 | 0.0 | 0.0 | 0.00 | 0.00 | 0.00 | 36 | 1011.8 |
| 20260509012049 | 69 | 0 | 0.0 | 0.0 | 0.00 | 0.00 | 0.00 | 35 | 1011.8 |
| 20260509011556 | 70 | 0 | 0.0 | 0.0 | 0.00 | 0.00 | 0.00 | 34 | 1011.8 |
| 20260509011048 | 71 | 0 | 0.0 | 0.0 | 0.00 | 0.00 | 0.00 | 33 | 1011.9 |
| 20260509010546 | 71 | 0 | 0.0 | 2.0 | 0.00 | 0.00 | 0.00 | 32 | 1011.8 |
| 20260509010054 | 72 | 0 | 0.0 | 6.0 | 0.00 | 0.00 | 0.00 | 32 | 1011.7 |
| 20260509005545 | 72 | 0 | 1.0 | 10.0 | 0.00 | 0.00 | 0.00 | 31 | 1011.6 |
| 20260509005049 | 72 | 11 | 5.0 | 11.0 | 0.00 | 0.00 | 0.00 | 31 | 1011.6 |
| 20260509004606 | 73 | 8 | 7.0 | 12.0 | 0.00 | 0.00 | 0.00 | 30 | 1011.7 |
| 20260509004048 | 73 | 19 | 6.0 | 12.0 | 0.00 | 0.00 | 0.00 | 30 | 1011.8 |
| 20260509003550 | 73 | 16 | 4.0 | 12.0 | 0.00 | 0.00 | 0.00 | 30 | 1011.7 |
| 20260509003051 | 73 | 358 | 7.0 | 14.0 | 0.00 | 0.00 | 0.00 | 29 | 1011.7 |
| 20260509002548 | 73 | 11 | 8.0 | 14.0 | 0.00 | 0.00 | 0.00 | 29 | 1011.7 |
| 20260509002048 | 73 | 355 | 9.0 | 16.0 | 0.00 | 0.00 | 0.00 | 29 | 1011.7 |
| 20260509001554 | 73 | 1 | 10.0 | 16.0 | 0.00 | 0.00 | 0.00 | 29 | 1011.7 |
| 20260509001047 | 73 | 17 | 11.0 | 17.0 | 0.00 | 0.00 | 0.00 | 29 | 1011.7 |
| 20260509000545 | 74 | 360 | 9.0 | 17.0 | 0.00 | 0.00 | 0.00 | 29 | 1011.7 |
| 20260509000053 | 74 | 1 | 5.0 | 13.0 | 0.00 | 0.00 | 0.00 | 30 | 1011.7 |
| 20260508235546 | 74 | 55 | 3.0 | 14.0 | 0.00 | 0.00 | 0.00 | 29 | 1011.7 |
| 20260508235047 | 74 | 55 | 9.0 | 14.0 | 0.00 | 0.00 | 0.00 | 29 | 1011.7 |
| 20260508234552 | 74 | 29 | 9.0 | 17.0 | 0.00 | 0.00 | 0.00 | 29 | 1011.7 |
| 20260508234045 | 74 | 334 | 10.0 | 18.0 | 0.00 | 0.00 | 0.00 | 29 | 1011.7 |
| 20260508233547 | 74 | 334 | 10.0 | 18.0 | 0.00 | 0.00 | 0.00 | 29 | 1011.7 |
| 20260508233055 | 74 | 13 | 11.0 | 18.0 | 0.00 | 0.00 | 0.00 | 29 | 1011.5 |
| 20260508232548 | 74 | 29 | 11.0 | 19.0 | 0.00 | 0.00 | 0.00 | 29 | 1011.6 |
| 20260508232050 | 74 | 359 | 12.0 | 20.0 | 0.00 | 0.00 | 0.00 | 28 | 1011.5 |
| 20260508231558 | 75 | 316 | 12.0 | 20.0 | 0.00 | 0.00 | 0.00 | 29 | 1011.4 |
| 20260508231048 | 75 | 4 | 12.0 | 20.0 | 0.00 | 0.00 | 0.00 | 29 | 1011.4 |
| 20260508230548 | 75 | 321 | 11.0 | 21.0 | 0.00 | 0.00 | 0.00 | 29 | 1011.3 |
| 20260508230056 | 75 | 319 | 15.0 | 21.0 | 0.00 | 0.00 | 0.00 | 28 | 1011.3 |
| 20260508225547 | 75 | 347 | 14.0 | 21.0 | 0.00 | 0.00 | 0.00 | 29 | 1011.3 |
| 20260508225047 | 75 | 13 | 10.0 | 20.0 | 0.00 | 0.00 | 0.00 | 29 | 1011.3 |
| 20260508224559 | 76 | 338 | 10.0 | 22.0 | 0.00 | 0.00 | 0.00 | 28 | 1011.3 |
| 20260508224045 | 76 | 309 | 12.0 | 22.0 | 0.00 | 0.00 | 0.00 | 28 | 1011.4 |
| 20260508223545 | 76 | 328 | 10.0 | 22.0 | 0.00 | 0.00 | 0.00 | 29 | 1011.3 |
| 20260508223055 | 76 | 328 | 16.0 | 22.0 | 0.00 | 0.00 | 0.00 | 28 | 1011.3 |
| 20260508222546 | 75 | 309 | 10.0 | 17.0 | 0.00 | 0.00 | 0.00 | 31 | 1011.1 |
| 20260508222045 | 76 | 17 | 12.0 | 20.0 | 0.00 | 0.00 | 0.00 | 29 | 1011.3 |
| 20260508221606 | 76 | 314 | 13.0 | 21.0 | 0.00 | 0.00 | 0.00 | 29 | 1011.1 |
| 20260508221046 | 75 | 342 | 14.0 | 23.0 | 0.00 | 0.00 | 0.00 | 30 | 1011.3 |
| 20260508220545 | 75 | 325 | 17.0 | 23.0 | 0.00 | 0.00 | 0.00 | 30 | 1011.3 |
| 20260508220058 | 75 | 351 | 13.0 | 22.0 | 0.00 | 0.00 | 0.00 | 30 | 1011.3 |
| 20260508215545 | 75 | 2 | 11.0 | 22.0 | 0.00 | 0.00 | 0.00 | 31 | 1011.4 |
| 20260508215048 | 76 | 345 | 13.0 | 21.0 | 0.00 | 0.00 | 0.00 | 31 | 1011.4 |
| 20260508214607 | 76 | 321 | 13.0 | 20.0 | 0.00 | 0.00 | 0.00 | 30 | 1011.3 |
| 20260508214048 | 75 | 323 | 9.0 | 19.0 | 0.00 | 0.00 | 0.00 | 31 | 1011.3 |
| 20260508213548 | 75 | 347 | 11.0 | 21.0 | 0.00 | 0.00 | 0.00 | 30 | 1011.5 |
| 20260508213057 | 76 | 314 | 11.0 | 24.0 | 0.00 | 0.00 | 0.00 | 30 | 1011.1 |
| 20260508212546 | 76 | 324 | 16.0 | 24.0 | 0.00 | 0.00 | 0.00 | 30 | 1011.4 |
| 20260508212045 | 75 | 11 | 16.0 | 24.0 | 0.00 | 0.00 | 0.00 | 31 | 1011.5 |
| 20260508211559 | 76 | 12 | 13.0 | 21.0 | 0.00 | 0.00 | 0.00 | 30 | 1011.3 |
| 20260508211046 | 76 | 327 | 13.0 | 24.0 | 0.00 | 0.00 | 0.00 | 30 | 1011.3 |
| 20260508210548 | 76 | 313 | 16.0 | 25.0 | 0.00 | 0.00 | 0.00 | 30 | 1011.4 |
| 20260508210056 | 76 | 335 | 17.0 | 25.0 | 0.00 | 0.00 | 0.00 | 31 | 1011.4 |
| 20260508205545 | 75 | 359 | 10.0 | 19.0 | 0.00 | 0.00 | 0.00 | 31 | 1011.4 |
| 20260508205045 | 76 | 337 | 12.0 | 24.0 | 0.00 | 0.00 | 0.00 | 32 | 1011.5 |
| 20260508204554 | 76 | 351 | 13.0 | 24.0 | 0.00 | 0.00 | 0.00 | 31 | 1011.5 |
| 20260508204048 | 75 | 346 | 14.0 | 22.0 | 0.00 | 0.00 | 0.00 | 31 | 1011.4 |
| 20260508203552 | 75 | 11 | 13.0 | 24.0 | 0.00 | 0.00 | 0.00 | 32 | 1011.6 |
| 20260508203053 | 76 | 342 | 16.0 | 24.0 | 0.00 | 0.00 | 0.00 | 31 | 1011.6 |
| 20260508202548 | 75 | 335 | 13.0 | 24.0 | 0.00 | 0.00 | 0.00 | 33 | 1011.6 |
| 20260508202049 | 75 | 348 | 14.0 | 27.0 | 0.00 | 0.00 | 0.00 | 32 | 1011.7 |
| 20260508201554 | 75 | 15 | 14.0 | 27.0 | 0.00 | 0.00 | 0.00 | 33 | 1011.7 |
| 20260508201049 | 75 | 321 | 17.0 | 27.0 | 0.00 | 0.00 | 0.00 | 34 | 1011.7 |
| 20260508200548 | 74 | 346 | 7.0 | 23.0 | 0.00 | 0.00 | 0.00 | 35 | 1011.7 |
| 20260508200100 | 74 | 333 | 12.0 | 23.0 | 0.00 | 0.00 | 0.00 | 34 | 1011.8 |
| 20260508195548 | 74 | 317 | 12.0 | 23.0 | 0.00 | 0.00 | 0.00 | 32 | 1012.0 |
| 20260508195049 | 74 | 320 | 11.0 | 18.0 | 0.00 | 0.00 | 0.00 | 34 | 1011.9 |
| 20260508194558 | 74 | 37 | 10.0 | 22.0 | 0.00 | 0.00 | 0.00 | 34 | 1011.9 |
| 20260508194048 | 74 | 335 | 10.0 | 22.0 | 0.00 | 0.00 | 0.00 | 34 | 1012.0 |
| 20260508193549 | 75 | 30 | 16.0 | 28.0 | 0.00 | 0.00 | 0.00 | 33 | 1012.0 |
| 20260508193110 | 75 | 332 | 16.0 | 28.0 | 0.00 | 0.00 | 0.00 | 33 | 1011.8 |
| 20260508192549 | 75 | 335 | 18.0 | 28.0 | 0.00 | 0.00 | 0.00 | 32 | 1011.8 |
| 20260508192052 | 75 | 354 | 16.0 | 25.0 | 0.00 | 0.00 | 0.00 | 34 | 1011.8 |
| 20260508191600 | 75 | 1 | 18.0 | 26.0 | 0.00 | 0.00 | 0.00 | 34 | 1011.7 |
| 20260508191052 | 75 | 323 | 14.0 | 26.0 | 0.00 | 0.00 | 0.00 | 34 | 1011.6 |
| 20260508190547 | 75 | 1 | 17.0 | 26.0 | 0.00 | 0.00 | 0.00 | 35 | 1011.5 |
| 20260508190113 | 74 | 349 | 17.0 | 25.0 | 0.00 | 0.00 | 0.00 | 35 | 1011.5 |
| 20260508185550 | 75 | 320 | 12.0 | 25.0 | 0.00 | 0.00 | 0.00 | 36 | 1011.5 |
| 20260508185049 | 74 | 336 | 18.0 | 25.0 | 0.00 | 0.00 | 0.00 | 36 | 1011.6 |
| 20260508184559 | 75 | 357 | 14.0 | 26.0 | 0.00 | 0.00 | 0.00 | 36 | 1011.6 |